Rantoul, IL

11:31 AM CDT on May 27, 2017 (GMT -0500)
Rantoul

Weather History for KTIP - May, 2013

Change the Weather History Date:

Friday, May 3, 2013

  Actual Average (KCMI) Record (KCMI)
Temperature  
Mean Temperature 59 °F -  
Max Temperature 73 °F 69 °F 88 °F (2012)
Min Temperature 45 °F 47 °F 28 °F (2005)
Degree Days  
Heating Degree Days 6    
Growing Degree Days 9 (Base 50)    
Moisture  
Dew Point 51 °F    
Average Humidity 77    
Maximum Humidity 90    
Minimum Humidity 57    
Precipitation  
Precipitation 0.10 in - - ()
Sea Level Pressure  
Sea Level Pressure 29.96 in    
Wind  
Wind Speed 12 mph (East)    
Max Wind Speed 28 mph    
Max Gust Speed 36 mph    
Visibility 9 miles    
Events Rain , Thunderstorm    
Averages and records for this station are not official NWS values.
T = Trace of Precipitation, MM = Missing Value Source: NWS Daily Summary

Daily Weather History Graph

Daily Weather History Graph

Search for Another Location

Airport or City:

Trip Planner

Search our weather history database for the weather conditions in past years. The results will help you decide how hot, cold, wet, or windy it might be!

Date:

Astronomy

May. 03, 2013 Rise Set
Actual Time 5:49 AM CDT 7:50 PM CDT
Civil Twilight 5:19 AM CDT 8:20 PM CDT
Nautical Twilight 4:43 AM CDT 8:56 PM CDT
Astronomical Twilight 4:04 AM CDT 9:35 PM CDT
Moon 2:14 AM CDT (5/3) 1:43 PM CDT (5/3)
Length of Visible Light 15h 00m
Length of Day
14h 00m
Last Quarter, 37% of the Moon is Illuminated
May 3
Last Quarter
May 9
New
May 17
First Quarter
May 24
Full
May 31
Last Quarter

Hourly Weather History & Observations

Time (CDT) Temp. Windchill Dew Point Humidity Pressure Visibility Wind Dir Wind Speed Gust Speed Precip Events Conditions
12:15 AM 48.2 °F - 43.3 °F 83% 30.08 in 10.0 mi NNE 16.1 mph - N/A   Scattered Clouds
12:35 AM 48.2 °F - 43.0 °F 82% 30.08 in 10.0 mi NNE 12.7 mph - N/A   Scattered Clouds
12:55 AM 47.8 °F - 42.8 °F 83% 30.08 in 10.0 mi NNE 10.4 mph - N/A   Scattered Clouds
1:15 AM 47.5 °F - 42.8 °F 84% 30.07 in 10.0 mi NE 12.7 mph - N/A   Scattered Clouds
1:35 AM 47.3 °F - 42.8 °F 84% 30.06 in 10.0 mi NNE 12.7 mph - N/A   Scattered Clouds
1:55 AM 47.1 °F - 42.4 °F 84% 30.05 in 10.0 mi NE 10.4 mph 17.3 mph N/A   Clear
2:15 AM 46.6 °F - 42.3 °F 85% 30.04 in 10.0 mi NNE 13.8 mph - N/A   Clear
2:35 AM 46.4 °F 40.1 °F 42.1 °F 85% 30.03 in 10.0 mi NNE 15.0 mph - N/A   Clear
2:55 AM 46.0 °F 39.9 °F 41.7 °F 85% 30.03 in 10.0 mi NE 13.8 mph - N/A   Clear
3:15 AM 45.9 °F 40.4 °F 41.5 °F 85% 30.03 in 10.0 mi NNE 11.5 mph 18.4 mph N/A   Clear
3:35 AM 45.7 °F 40.2 °F 41.7 °F 86% 30.03 in 10.0 mi NE 11.5 mph - N/A   Scattered Clouds
3:55 AM 45.5 °F 39.6 °F 41.5 °F 86% 30.03 in 10.0 mi NE 12.7 mph - N/A   Scattered Clouds
4:15 AM 45.7 °F 40.6 °F 41.7 °F 86% 30.03 in 10.0 mi NE 10.4 mph - N/A   Mostly Cloudy
4:35 AM 45.9 °F 41.2 °F 42.1 °F 87% 30.03 in 10.0 mi NE 9.2 mph - N/A Rain Light Rain
4:55 AM 45.9 °F 42.9 °F 41.9 °F 86% 30.04 in 10.0 mi NNE 5.8 mph - N/A Rain Light Rain
5:15 AM 45.7 °F 41.0 °F 41.9 °F 87% 30.03 in 7.0 mi NNE 9.2 mph - N/A   Scattered Clouds
5:35 AM 45.7 °F 40.2 °F 42.3 °F 88% 30.02 in 7.0 mi NNE 11.5 mph - N/A   Light Drizzle
6:15 AM 45.5 °F 39.9 °F 42.8 °F 90% 30.02 in 5.0 mi NE 11.5 mph - 0.01 in Rain Light Rain
6:35 AM 45.5 °F 39.2 °F 42.8 °F 90% 30.01 in 5.0 mi NE 13.8 mph - 0.01 in   Scattered Clouds
6:55 AM 45.9 °F 40.8 °F 42.8 °F 89% 30.01 in 5.0 mi NE 10.4 mph - 0.01 in   Light Drizzle
7:15 AM 46.2 °F 41.2 °F 43.2 °F 89% 30.01 in 5.0 mi NE 10.4 mph - N/A   Light Drizzle
7:35 AM 46.6 °F - 43.3 °F 88% 30.01 in 5.0 mi NE 13.8 mph - N/A   Mostly Cloudy
7:55 AM 47.3 °F - 44.2 °F 89% 30.01 in 5.0 mi ENE 12.7 mph - N/A   Scattered Clouds
8:15 AM 48.2 °F - 44.6 °F 87% 30.01 in 5.0 mi ENE 10.4 mph - N/A   Scattered Clouds
8:55 AM 50.0 °F - 46.4 °F 87% 30.00 in 4.0 mi ENE 9.2 mph - N/A   Scattered Clouds
9:15 AM 51.1 °F - 47.8 °F 89% 30.00 in 4.0 mi East 10.4 mph - N/A Rain Light Rain
9:35 AM 52.2 °F - 49.1 °F 89% 29.99 in 5.0 mi ENE 8.1 mph - N/A   Scattered Clouds
9:55 AM 53.1 °F - 50.0 °F 89% 29.99 in 5.0 mi East 9.2 mph - N/A   Light Drizzle
10:15 AM 54.5 °F - 51.4 °F 89% 29.99 in 5.0 mi East 8.1 mph - N/A   Light Drizzle
10:35 AM 56.7 °F - 53.4 °F 89% 29.98 in 5.0 mi East 9.2 mph - N/A   Clear
10:55 AM 59.0 °F - 55.0 °F 87% 29.98 in 5.0 mi East 9.2 mph - N/A   Clear
11:15 AM 62.6 °F - 57.6 °F 84% 29.97 in 10.0 mi East 9.2 mph - N/A   Clear
11:35 AM 64.6 °F - 58.3 °F 80% 29.96 in 10.0 mi East 8.1 mph - N/A   Clear
11:55 AM 68.2 °F - 60.8 °F 77% 29.95 in 10.0 mi SE 10.4 mph - N/A   Clear
12:15 PM 69.8 °F - 61.3 °F 74% 29.94 in 10.0 mi ESE 12.7 mph 20.7 mph N/A   Scattered Clouds
12:35 PM 69.8 °F - 57.2 °F 64% 29.94 in 10.0 mi SE 18.4 mph 24.2 mph N/A   Scattered Clouds
12:55 PM 69.6 °F - 57.7 °F 66% 29.94 in 10.0 mi SSE 17.3 mph - N/A   Scattered Clouds
1:15 PM 70.0 °F - 57.6 °F 65% 29.93 in 10.0 mi SE 19.6 mph - N/A   Scattered Clouds
1:35 PM 70.7 °F - 56.7 °F 61% 29.93 in 10.0 mi SSE 17.3 mph 24.2 mph N/A   Scattered Clouds
1:55 PM 70.7 °F - 57.0 °F 62% 29.92 in 10.0 mi SSE 13.8 mph - N/A   Clear
2:15 PM 70.7 °F - 59.0 °F 66% 29.92 in 10.0 mi SE 15.0 mph - N/A   Scattered Clouds
2:35 PM 70.7 °F - 57.9 °F 64% 29.91 in 10.0 mi SE 16.1 mph - N/A   Scattered Clouds
3:15 PM 70.7 °F - 57.2 °F 62% 29.91 in 10.0 mi SE 13.8 mph - N/A   Scattered Clouds
3:35 PM 71.2 °F - 57.7 °F 62% 29.90 in 10.0 mi SE 15.0 mph - N/A   Clear
3:55 PM 71.8 °F - 57.0 °F 60% 29.89 in 10.0 mi SE 15.0 mph - N/A   Clear
4:15 PM 72.1 °F - 56.5 °F 58% 29.88 in 10.0 mi SE 11.5 mph - N/A   Clear
4:35 PM 72.5 °F - 56.5 °F 57% 29.88 in 10.0 mi SE 12.7 mph - N/A   Clear
4:55 PM 72.7 °F - 57.0 °F 58% 29.87 in 10.0 mi SE 10.4 mph - N/A   Scattered Clouds
5:15 PM 73.2 °F - 58.1 °F 59% 29.87 in 10.0 mi SE 8.1 mph - N/A   Clear
5:35 PM 72.0 °F - 58.8 °F 63% 29.86 in 10.0 mi East 8.1 mph - N/A   Scattered Clouds
5:55 PM 71.6 °F - 59.7 °F 66% 29.86 in 10.0 mi ESE 8.1 mph - N/A   Mostly Cloudy
6:15 PM 72.7 °F - 59.2 °F 62% 29.86 in 10.0 mi East 11.5 mph - N/A   Scattered Clouds
6:55 PM 71.6 °F - 59.0 °F 64% 29.86 in 10.0 mi East 12.7 mph - N/A   Clear
7:15 PM 70.7 °F - 59.4 °F 67% 29.86 in 10.0 mi East 8.1 mph - N/A   Clear
7:35 PM 69.6 °F - 59.9 °F 71% 29.86 in 10.0 mi East 8.1 mph - N/A   Clear
7:55 PM 69.1 °F - 59.4 °F 71% 29.86 in 10.0 mi East 9.2 mph - N/A   Clear
9:35 PM 67.3 °F - 58.1 °F 72% 29.88 in 10.0 mi East 12.7 mph - N/A   Clear
9:55 PM 67.3 °F - 58.1 °F 72% 29.89 in 10.0 mi ESE 15.0 mph 20.7 mph N/A Thunderstorm Scattered Clouds
10:15 PM 64.4 °F - 56.1 °F 74% 29.91 in 10.0 mi SE 19.6 mph - 0.05 in Rain , Thunderstorm Light Thunderstorms and Rain
10:35 PM 62.8 °F - 56.5 °F 80% 29.92 in 10.0 mi SE 27.6 mph 35.7 mph 0.07 in Rain Light Rain
11:15 PM 61.7 °F - 56.8 °F 84% 29.91 in 10.0 mi ESE 11.5 mph - 0.02 in Rain Light Rain
11:35 PM 61.9 °F - 57.2 °F 85% 29.91 in 10.0 mi ESE 11.5 mph - 0.02 in Thunderstorm Unknown
11:55 PM 63.0 °F - 57.2 °F 81% 29.92 in 10.0 mi SE 16.1 mph - 0.02 in Rain Rain